Total_Precipitation_Accumulation
1.61 1.61 1.45 1.46 1.49 1.73 2.07 2.38 2.43 2.64 2.74 2.53 2.14 1.93 1.90 1.79 1.82 1.74 1.43 1.46 1.64 1.67 1.65 1.62 1.57 1.55 1.58 1.51 1.32 1.19 1.02 0.91 0.80 0.64 0.47 0.37 0.40 0.36 0.25 0.15 0.08 0.05 0.04
1.41 1.38 1.36 1.42 1.47 1.49 1.64 2.02 2.27 2.48 2.42 2.22 1.82 1.69 1.67 1.71 1.62 1.58 1.38 1.41 1.55 1.44 1.43 1.58 1.69 1.73 1.74 1.65 1.48 1.34 1.17 1.02 0.85 0.65 0.55 0.49 0.36 0.33 0.34 0.26 0.16 0.08 0.04
1.11 1.13 1.14 1.14 1.19 1.23 1.25 1.39 1.62 1.79 1.74 1.67 1.61 1.64 1.62 1.56 1.43 1.39 1.42 1.35 1.24 1.30 1.34 1.40 1.47 1.59 1.73 1.84 1.78 1.58 1.34 1.14 0.94 0.73 0.56 0.45 0.38 0.27 0.21 0.22 0.23 0.17 0.08
0.69 0.71 0.71 0.70 0.72 0.73 0.79 0.89 1.00 1.12 1.24 1.38 1.48 1.47 1.50 1.49 1.39 1.37 1.35 1.29 1.25 1.11 1.27 1.33 1.31 1.35 1.52 1.69 1.80 1.89 1.70 1.36 1.10 0.92 0.71 0.51 0.41 0.33 0.23 0.19 0.22 0.22 0.15
0.47 0.50 0.50 0.50 0.45 0.44 0.48 0.50 0.61 0.73 0.85 0.95 0.96 1.05 1.07 1.00 0.99 0.96 0.98 0.90 1.01 0.99 1.04 1.12 1.18 1.17 1.32 1.57 1.88 2.13 2.07 1.69 1.34 1.11 0.97 0.78 0.63 0.47 0.34 0.27 0.22 0.20 0.17
0.38 0.42 0.39 0.38 0.33 0.33 0.38 0.43 0.49 0.51 0.53 0.59 0.54 0.62 0.64 0.58 0.59 0.58 0.56 0.61 0.67 0.67 0.73 0.88 0.90 0.82 1.05 1.37 1.67 1.94 2.06 1.96 1.64 1.32 1.24 1.15 1.02 0.76 0.53 0.41 0.31 0.25 0.19
0.35 0.41 0.33 0.35 0.33 0.29 0.30 0.32 0.36 0.37 0.35 0.34 0.40 0.44 0.38 0.35 0.35 0.31 0.33 0.38 0.44 0.53 0.65 0.79 0.80 0.79 0.75 0.85 0.97 1.28 1.64 1.91 1.91 1.60 1.43 1.37 1.29 1.01 0.65 0.54 0.49 0.37 0.28
0.23 0.29 0.36 0.28 0.29 0.29 0.29 0.28 0.32 0.30 0.27 0.28 0.35 0.39 0.36 0.39 0.37 0.22 0.28 0.31 0.35 0.49 0.58 0.64 0.70 0.76 0.67 0.71 0.49 0.64 1.05 1.38 1.73 1.72 1.49 1.35 1.36 1.17 0.80 0.61 0.54 0.48 0.40
0.17 0.20 0.25 0.27 0.30 0.26 0.30 0.35 0.32 0.31 0.24 0.22 0.27 0.35 0.35 0.35 0.37 0.35 0.32 0.32 0.35 0.49 0.55 0.63 0.64 0.68 0.69 0.76 0.74 0.57 0.73 0.85 1.25 1.66 1.71 1.45 1.24 1.11 0.98 0.86 0.70 0.51 0.42
0.15 0.13 0.13 0.18 0.25 0.27 0.35 0.27 0.30 0.32 0.29 0.22 0.22 0.24 0.24 0.26 0.31 0.36 0.35 0.31 0.34 0.41 0.42 0.42 0.47 0.58 0.61 0.61 0.61 0.46 0.40 0.50 0.86 1.36 1.64 1.66 1.44 1.23 1.07 1.04 1.06 0.90 0.62
0.19 0.17 0.16 0.15 0.15 0.20 0.27 0.30 0.36 0.33 0.34 0.30 0.23 0.21 0.22 0.20 0.20 0.20 0.27 0.30 0.29 0.22 0.23 0.28 0.34 0.47 0.49 0.48 0.55 0.44 0.34 0.40 0.56 0.85 1.15 1.41 1.47 1.34 1.16 1.17 1.42 1.54 1.33
0.29 0.27 0.24 0.23 0.23 0.20 0.18 0.20 0.25 0.31 0.37 0.38 0.29 0.23 0.25 0.23 0.17 0.17 0.14 0.15 0.22 0.16 0.16 0.19 0.27 0.38 0.42 0.47 0.48 0.40 0.41 0.48 0.54 0.63 0.74 0.91 1.10 1.15 1.09 1.13 1.34 1.68 1.85
0.31 0.31 0.29 0.28 0.30 0.29 0.26 0.21 0.18 0.22 0.30 0.35 0.33 0.29 0.23 0.18 0.18 0.21 0.17 0.11 0.11 0.11 0.15 0.16 0.23 0.28 0.28 0.45 0.59 0.60 0.53 0.54 0.53 0.55 0.61 0.66 0.76 0.91 0.91 0.94 1.10 1.39 1.70
0.34 0.30 0.29 0.27 0.29 0.32 0.33 0.30 0.24 0.22 0.24 0.28 0.30 0.36 0.30 0.15 0.16 0.21 0.21 0.21 0.19 0.15 0.19 0.21 0.30 0.34 0.33 0.39 0.52 0.62 0.57 0.52 0.45 0.42 0.45 0.47 0.51 0.61 0.71 0.75 0.81 0.92 1.10
0.39 0.35 0.30 0.28 0.29 0.31 0.34 0.35 0.33 0.32 0.29 0.26 0.30 0.37 0.35 0.25 0.17 0.16 0.21 0.26 0.30 0.25 0.21 0.28 0.41 0.47 0.39 0.40 0.43 0.43 0.52 0.51 0.45 0.39 0.34 0.34 0.36 0.37 0.42 0.50 0.56 0.58 0.60
0.29 0.32 0.33 0.30 0.28 0.30 0.34 0.38 0.41 0.46 0.47 0.42 0.37 0.39 0.40 0.37 0.34 0.27 0.24 0.27 0.31 0.32 0.29 0.26 0.41 0.49 0.53 0.43 0.47 0.49 0.51 0.49 0.42 0.38 0.32 0.28 0.30 0.32 0.33 0.35 0.40 0.46 0.47
0.27 0.27 0.28 0.27 0.25 0.25 0.28 0.33 0.36 0.47 0.59 0.67 0.63 0.55 0.49 0.50 0.48 0.41 0.38 0.35 0.34 0.37 0.41 0.41 0.50 0.62 0.66 0.57 0.58 0.54 0.50 0.51 0.42 0.40 0.35 0.33 0.30 0.29 0.31 0.32 0.32 0.33 0.37
0.38 0.37 0.33 0.31 0.27 0.23 0.26 0.28 0.30 0.35 0.49 0.65 0.80 0.82 0.72 0.64 0.59 0.51 0.46 0.43 0.41 0.46 0.50 0.57 0.62 0.70 0.74 0.73 0.69 0.55 0.44 0.42 0.45 0.45 0.40 0.37 0.36 0.33 0.30 0.29 0.28 0.27 0.28
0.45 0.46 0.44 0.42 0.39 0.36 0.34 0.32 0.32 0.31 0.35 0.44 0.60 0.80 0.88 0.84 0.69 0.63 0.57 0.51 0.48 0.47 0.51 0.54 0.62 0.80 0.91 0.92 0.74 0.49 0.40 0.44 0.42 0.51 0.50 0.40 0.35 0.34 0.31 0.28 0.25 0.23 0.23
0.60 0.60 0.62 0.58 0.51 0.46 0.43 0.44 0.43 0.42 0.43 0.45 0.47 0.55 0.69 0.84 0.81 0.75 0.67 0.62 0.60 0.62 0.63 0.63 0.69 0.85 1.05 1.10 0.89 0.60 0.49 0.46 0.43 0.38 0.41 0.38 0.34 0.32 0.30 0.28 0.25 0.23 0.23
0.86 0.88 0.83 0.76 0.72 0.65 0.55 0.60 0.67 0.65 0.65 0.55 0.48 0.45 0.46 0.59 0.71 0.77 0.70 0.66 0.68 0.69 0.70 0.69 0.74 0.89 1.05 1.14 0.92 0.68 0.54 0.48 0.44 0.40 0.35 0.30 0.28 0.28 0.30 0.32 0.31 0.27 0.24
1.06 1.03 0.98 0.95 0.91 0.76 0.74 0.71 0.67 0.66 0.69 0.68 0.60 0.56 0.50 0.47 0.52 0.61 0.68 0.70 0.70 0.69 0.70 0.71 0.73 0.86 0.98 1.03 1.06 0.88 0.67 0.49 0.40 0.38 0.40 0.36 0.33 0.33 0.28 0.26 0.32 0.31 0.29
1.05 1.03 1.05 1.05 1.00 0.94 0.81 0.65 0.54 0.55 0.59 0.64 0.69 0.68 0.52 0.41 0.46 0.52 0.61 0.63 0.61 0.57 0.57 0.62 0.67 0.77 1.03 1.20 1.31 1.04 0.84 0.72 0.56 0.49 0.47 0.40 0.40 0.36 0.31 0.29 0.36 0.32 0.29
1.01 0.99 0.94 0.84 0.77 0.68 0.59 0.51 0.47 0.52 0.55 0.53 0.62 0.69 0.64 0.55 0.51 0.54 0.53 0.50 0.48 0.47 0.43 0.44 0.50 0.67 0.92 1.27 1.46 1.43 1.31 1.10 0.92 0.72 0.58 0.46 0.39 0.35 0.33 0.30 0.35 0.35 0.31
0.80 0.72 0.65 0.63 0.64 0.61 0.58 0.48 0.44 0.50 0.55 0.51 0.53 0.57 0.61 0.57 0.49 0.41 0.43 0.39 0.37 0.38 0.35 0.36 0.40 0.57 0.75 1.01 1.36 1.52 1.44 1.22 0.99 0.74 0.56 0.45 0.37 0.34 0.31 0.29 0.30 0.35 0.34
0.60 0.57 0.51 0.52 0.56 0.59 0.58 0.44 0.41 0.48 0.55 0.54 0.57 0.62 0.66 0.59 0.46 0.34 0.39 0.43 0.36 0.32 0.34 0.35 0.36 0.42 0.55 0.73 1.04 1.20 1.17 1.10 0.92 0.72 0.49 0.43 0.36 0.39 0.34 0.27 0.23 0.24 0.26